STARLINK-36768

Last updated on Sun Mar 15 2026 00:02:06 GMT+0000 (Coordinated Universal Time)

1 67803U 26032G 26073.51068068 .00213424 00000+0 13934-2 0 9996 2 67803 97.2843 260.2556 0001582 75.3878 284.7562 15.75238183 5540
UTC large
Height (km)
Speed (km/s)
/
Latitude / Longitude
Inclination (degrees)
Orbital Period (minutes)
Azimuth
Elevation
Range (km)
Doppler Factor

Next 0 passes for location: London (51.5072 / 0.1276)

Sorry there are no passes over London.